Location: Castro Valley
(37.6940°N, 122.0850°W)
Time: 15:11:27
(UTC-07:00)

Amateur Radio Satellites - All Passes

Search period start: 28 September 2016 14:41
Search period end: 29 September 2016 14:41
Location: Castro Valley, 37.6940°N, 122.0850°W

Satellite Date Start Highest point End Downlink Frequencies (MHz)
Time Altitude Azimuth
TISAT 1 28 Sep 14:42:28 14:46:39 76° 284° (WNW) 14:50:48 437.305
Oscar 19 28 Sep 14:50:38 14:54:46 24° 265° (W) 14:58:56 437.125/150
Cosmos 2504 28 Sep 14:52:53 14:59:38 35° 75° (ENE) 15:06:47 435.465 / 435.565
PCSat 28 Sep 14:56:03 15:01:06 40° 250° (WSW) 15:06:06 145.827
PHONESAT 2.4 28 Sep 15:00:59 15:03:56 86° 193° (SSW) 15:06:53 2401.200-2431.200
ITUPSAT 1 28 Sep 15:21:49 15:26:28 47° 100° (E) 15:31:05 437.325
SWISSCUBE 28 Sep 15:34:23 15:39:12 74° 103° (ESE) 15:43:59 437.505
AIST 1 28 Sep 15:44:10 15:46:08 13° 71° (ENE) 15:48:05
ITAMSAT 1 28 Sep 15:44:12 15:49:16 57° 259° (W) 15:54:23 435.822/435.867
BEESAT 28 Sep 15:47:17 15:52:06 90° 232° (SW) 15:56:54 436.000
AO-7 28 Sep 15:50:07 15:58:26 84° 71° (ENE) 16:06:46 29.400- 29.500
Gurwin Techsat 1B 28 Sep 15:56:51 15:59:04 13° 270° (W) 16:01:17 435.225
SO-50 28 Sep 16:01:33 16:06:14 48° 305° (NW) 16:10:53 436.795
O/OREOS (USA 219) 28 Sep 16:06:27 16:06:37 10° 53° (NE) 16:06:45 437.305
HORYU 2 28 Sep 16:09:56 16:10:29 10° 62° (ENE) 16:11:04 437.375
Cosmos 2491 28 Sep 16:16:47 16:25:13 50° 283° (WNW) 16:33:45 435.465 / 435.565
YUBILEINY 28 Sep 16:25:12 16:31:42 24° 278° (W) 16:38:13 435.215
BRITE-PL 28 Sep 16:32:03 16:35:02 15° 63° (ENE) 16:37:59 437.365/2234.400
PHONESAT 2.4 28 Sep 16:37:44 16:39:45 17° 213° (SSW) 16:41:46 2401.200-2431.200
Cosmos 2504 28 Sep 16:46:06 16:52:58 41° 271° (W) 17:00:17 435.465 / 435.565
ITUPSAT 1 28 Sep 17:00:45 17:03:54 18° 295° (WNW) 17:07:03 437.325
MOZHAYETS 4 28 Sep 17:06:31 17:11:10 74° 284° (WNW) 17:15:48
SWISSCUBE 28 Sep 17:14:44 17:16:20 12° 298° (WNW) 17:17:55 437.505
AIST 1 28 Sep 17:19:54 17:24:00 45° 267° (W) 17:28:02
KKS-1 28 Sep 17:25:54 17:30:18 73° 285° (WNW) 17:34:42 437.445
NOAA 15 28 Sep 17:31:31 17:35:42 24° 66° (ENE) 17:39:54 137.62
HORYU 2 28 Sep 17:42:02 17:46:24 71° 257° (WSW) 17:50:50 437.375
O/OREOS (USA 219) 28 Sep 17:42:02 17:46:39 85° 251° (WSW) 17:51:14 437.305
AO-7 28 Sep 17:46:44 17:52:00 18° 268° (W) 17:57:19 29.400- 29.500
CUTE-I 28 Sep 17:50:16 17:54:46 29° 68° (ENE) 17:59:18 437.470
Cubesat XI-IV 28 Sep 17:50:24 17:54:54 29° 67° (ENE) 17:59:25 437.490
GOMX 1 28 Sep 17:53:03 17:57:55 35° 71° (ENE) 18:02:34 467.674
STARS 28 Sep 17:57:12 18:01:32 69° 286° (WNW) 18:05:53 437.465
LilacSat-2 28 Sep 18:05:32 18:08:52 31° 72° (ENE) 18:12:13 437.200
BRITE-PL 28 Sep 18:07:07 18:12:48 78° 257° (WSW) 18:18:26 437.365/2234.400
DOVE 4 28 Sep 18:11:14 18:15:01 22° 69° (ENE) 18:18:40 437.250
CUBESAT XI-V 28 Sep 18:28:36 18:33:18 77° 284° (WNW) 18:37:57 437.345
NOAA 18 28 Sep 18:37:47 18:43:12 67° 73° (ENE) 18:48:38 137.9125
RS-15 28 Sep 18:42:02 18:50:53 27° 101° (E) 19:00:01 29.354- 29.394
GONETS M04 28 Sep 18:50:38 18:57:06 22° 67° (ENE) 19:03:30
CUSAT 1 28 Sep 18:51:47 18:57:26 39° 88° (E) 19:04:15 437.405
DANDE 28 Sep 18:53:52 18:55:32 11° 76° (ENE) 18:57:17 436.750
NOAA 15 28 Sep 19:10:16 19:15:12 40° 261° (W) 19:20:12 137.62
ISS 28 Sep 19:11:49 19:13:48 15° 129° (SE) 19:15:48 145.825
CINEMA 3 28 Sep 19:16:40 19:20:17 25° 70° (ENE) 19:23:48 145.822/145.860
CUTE 1.7 + AOD 2 28 Sep 19:18:14 19:21:03 18° 67° (ENE) 19:23:53 437.475
SEEDS 28 Sep 19:19:13 19:20:53 12° 65° (ENE) 19:22:35 437.485
CANX-2 28 Sep 19:19:17 19:22:27 21° 69° (ENE) 19:25:38 2200.000
CUTE-I 28 Sep 19:29:59 19:34:41 32° 263° (W) 19:39:26 437.470
Cubesat XI-IV 28 Sep 19:30:07 19:34:50 32° 263° (W) 19:39:36 437.490
GOMX 1 28 Sep 19:31:25 19:35:56 27° 265° (W) 19:40:19 467.674
AAUSAT CUBESAT 2 28 Sep 19:39:51 19:40:46 11° 64° (ENE) 19:41:42 437.432
LilacSat-2 28 Sep 19:41:03 19:43:14 15° 267° (W) 19:45:26 437.200
HO-68 28 Sep 19:43:29 19:50:25 55° 69° (ENE) 19:57:22 435.675
DOVE 4 28 Sep 19:47:49 19:52:28 37° 262° (W) 19:56:57 437.250
Cosmos 2499 28 Sep 19:53:10 20:00:27 46° 78° (ENE) 20:08:15 435.465 / 435.565
STRAND 1 28 Sep 19:53:39 19:58:20 35° 98° (E) 20:03:01 437.568
AO-85 28 Sep 20:03:25 20:06:58 19° 110° (ESE) 20:10:25 145.980
CUBEBUG 2 28 Sep 20:17:37 20:21:14 29° 71° (ENE) 20:24:49 437.445
FUNcube-1 28 Sep 20:20:41 20:21:57 11° 65° (ENE) 20:23:13 145.935
NOAA 18 28 Sep 20:21:32 20:24:17 14° 268° (W) 20:27:05 137.9125
COMPASS 1 28 Sep 20:21:43 20:25:39 42° 73° (ENE) 20:29:38 437.405
DANDE 28 Sep 20:31:42 20:36:42 83° 277° (W) 20:43:29 436.750
UWE-3 28 Sep 20:33:40 20:37:14 28° 71° (ENE) 20:40:47 435.000/436.395/437.385
CUSAT 1 28 Sep 20:33:42 20:39:26 35° 290° (WNW) 20:46:16 437.405
GONETS M04 28 Sep 20:45:59 20:54:47 74° 266° (W) 21:03:27
ISS 28 Sep 20:46:51 20:50:00 46° 325° (NW) 20:53:10 145.825
RS-15 28 Sep 20:50:21 21:01:56 79° 302° (WNW) 21:14:13 29.354- 29.394
SEEDS 28 Sep 20:52:00 20:56:06 53° 260° (W) 21:00:15 437.485
CUTE 1.7 + AOD 2 28 Sep 20:52:43 20:56:35 35° 262° (W) 21:00:31 437.475
CINEMA 3 28 Sep 20:53:33 20:57:19 26° 264° (W) 21:00:59 145.822/145.860
CANX-2 28 Sep 20:54:24 20:58:06 29° 264° (W) 21:01:50 2200.000
Oscar 11 28 Sep 20:56:28 21:00:17 32° 71° (ENE) 21:04:08 145.826/435.025
ZACube-1 28 Sep 21:00:28 21:04:15 35° 72° (ENE) 21:08:02 437.345
PRISM 28 Sep 21:04:20 21:06:38 14° 93° (E) 21:08:55 437.425
AAUSAT CUBESAT 2 28 Sep 21:11:35 21:15:42 60° 260° (W) 21:19:50 437.432
HO-68 28 Sep 21:32:39 21:38:24 26° 265° (W) 21:44:12 435.675
STRAND 1 28 Sep 21:33:07 21:37:19 26° 293° (WNW) 21:41:31 437.568
AO-85 28 Sep 21:41:59 21:47:06 54° 303° (WNW) 21:51:56 145.980
Cosmos 2499 28 Sep 21:46:43 21:53:16 32° 273° (W) 22:00:16 435.465 / 435.565
JUGNU 28 Sep 21:53:02 21:55:43 13° 179° (S) 21:58:23 437.505
FUNcube-1 28 Sep 21:53:39 21:57:42 54° 260° (W) 22:01:45 145.935
CUBEBUG 2 28 Sep 21:54:47 21:57:52 20° 265° (W) 22:00:56 437.445
COMPASS 1 28 Sep 21:59:15 22:01:23 14° 268° (W) 22:03:32 437.405
UWE-3 28 Sep 22:10:37 22:13:41 20° 265° (W) 22:16:46 435.000/436.395/437.385
DANDE 28 Sep 22:19:13 22:21:05 11° 304° (WNW) 22:23:06 436.750
DELFI C3 28 Sep 22:22:37 22:26:34 61° 259° (W) 22:30:34 145.870
ANTELSAT 28 Sep 22:24:10 22:26:58 16° 93° (E) 22:29:47 437.575/2403.000
ISS 28 Sep 22:26:09 22:27:09 11° 343° (NNW) 22:28:09 145.825
Oscar 11 28 Sep 22:33:21 22:36:27 19° 266° (W) 22:39:35 145.826/435.025
ZACube-1 28 Sep 22:38:07 22:40:39 16° 267° (W) 22:43:12 437.345
PRISM 28 Sep 22:38:14 22:42:05 39° 288° (WNW) 22:45:54 437.425
TIGRISAT 28 Sep 22:43:38 22:47:19 25° 96° (E) 22:51:03 435.000
HUMSAT D 28 Sep 22:46:53 22:50:55 68° 259° (W) 22:55:01 437.325/437.525
GONETS M04 28 Sep 22:47:14 22:49:55 12° 285° (WNW) 22:52:35
SRMSAT 28 Sep 22:52:50 22:54:19 11° 171° (S) 22:55:49 437.500
SO-50 28 Sep 22:56:19 22:58:07 12° 41° (NE) 22:59:54 436.795
AISAT 28 Sep 22:58:49 23:00:34 12° 64° (ENE) 23:02:19 437.250
RS-15 28 Sep 23:07:10 23:16:47 27° 329° (NNW) 23:26:45 29.354- 29.394
AUBIESAT-1 28 Sep 23:18:27 23:20:18 13° 63° (ENE) 23:22:05 437.475
UNISAT 6 28 Sep 23:24:03 23:28:29 79° 102° (ESE) 23:33:01 437.425
DX 1 28 Sep 23:29:19 23:31:55 16° 65° (ENE) 23:34:31 434.975-435.025
50 SAT 28 Sep 23:32:44 23:35:30 21° 70° (ENE) 23:38:18 437.505
VELOX 1 28 Sep 23:39:47 23:43:44 32° 71° (ENE) 23:47:42 145.980
CUBEBUG 1 28 Sep 23:40:43 23:44:53 42° 72° (ENE) 23:49:03 437.445
JUGNU 28 Sep 23:42:32 23:43:51 11° 189° (S) 23:45:10 437.505
QB50P2 28 Sep 23:43:17 23:45:49 15° 93° (E) 23:48:21 145.880/145.840
ESTCUBE 1 28 Sep 23:44:48 23:49:19 77° 76° (ENE) 23:53:53 437.505/2401.250
POLYITAN 1 28 Sep 23:45:28 23:48:01 15° 93° (E) 23:50:33 437.675
M-CUBED/EXP-1 PRIME 28 Sep 23:54:35 23:58:31 43° 69° (ENE) 00:02:12 437.505
ANTELSAT 28 Sep 23:59:38 00:03:48 41° 287° (WNW) 00:08:03 437.575/2403.000
SPROUT 29 Sep 00:16:07 00:20:09 42° 73° (ENE) 00:24:11 437.525
BUGSAT 1 29 Sep 00:20:03 00:21:36 12° 92° (E) 00:23:08 437.445
TIGRISAT 29 Sep 00:20:13 00:23:55 27° 290° (WNW) 00:27:41 435.000
DUCHIFAT 1 29 Sep 00:20:40 00:24:29 34° 98° (E) 00:28:18 145.980
BEESAT 2 29 Sep 00:23:50 00:25:39 13° 109° (ESE) 00:27:28 435.950
QB50P1 29 Sep 00:23:58 00:28:00 43° 99° (E) 00:32:01 145.935-145.965
JAS-2 29 Sep 00:27:06 00:34:33 45° 97° (E) 00:41:32 435.910
AISAT 29 Sep 00:32:06 00:36:30 60° 259° (WSW) 00:40:55 437.250
UKube-1 29 Sep 00:32:24 00:36:40 60° 74° (ENE) 00:40:56 .
SO-50 29 Sep 00:34:42 00:39:16 90° 333° (NNW) 00:43:43 436.795
Cosmos 2491 29 Sep 00:35:17 00:39:30 14° 61° (ENE) 00:43:40 435.465 / 435.565
POPSAT HIP 1 29 Sep 00:37:29 00:41:41 63° 101° (E) 00:45:52 437.405
SRMSAT 29 Sep 00:39:59 00:42:36 13° 181° (S) 00:45:14 437.500
AUBIESAT-1 29 Sep 00:50:31 00:54:27 45° 255° (WSW) 00:58:08 437.475
NANOSAT C BR1 29 Sep 00:52:57 00:57:10 88° 283° (WNW) 01:01:22 145.865
BEESAT 3 29 Sep 01:00:59 01:04:52 80° 119° (ESE) 01:08:49 437.485
DX 1 29 Sep 01:03:32 01:07:43 44° 260° (W) 01:11:55 434.975-435.025
50 SAT 29 Sep 01:06:07 01:08:53 21° 264° (W) 01:11:42 437.505
VELOX 1 29 Sep 01:16:51 01:20:12 21° 265° (W) 01:23:35 145.980
QB50P2 29 Sep 01:17:50 01:21:45 38° 288° (WNW) 01:25:40 145.880/145.840
CUBEBUG 1 29 Sep 01:18:42 01:21:19 15° 267° (W) 01:23:58 437.445
POLYITAN 1 29 Sep 01:20:01 01:23:57 38° 288° (WNW) 01:27:52 437.675
Oscar 19 29 Sep 01:25:25 01:28:15 15° 92° (E) 01:31:05 437.125/150
RS-15 29 Sep 01:28:02 01:35:33 18° 5° (N) 01:43:08 29.354- 29.394
M-CUBED/EXP-1 PRIME 29 Sep 01:31:07 01:33:07 13° 261° (W) 01:35:03 437.505
TISAT 1 29 Sep 01:31:53 01:36:00 60° 74° (ENE) 01:40:07 437.305
YUBILEINY 29 Sep 01:35:00 01:38:30 13° 76° (ENE) 01:42:00 435.215
ISS 29 Sep 01:40:32 01:42:36 16° 24° (NNE) 01:44:41 145.825
BUGSAT 1 29 Sep 01:53:21 01:57:11 45° 287° (WNW) 02:01:02 437.445
SPROUT 29 Sep 01:53:56 01:56:16 14° 268° (W) 01:58:35 437.525
DUCHIFAT 1 29 Sep 01:57:04 01:59:54 18° 293° (WNW) 02:02:45 145.980
BEESAT 2 29 Sep 01:59:13 02:03:01 46° 304° (WNW) 02:06:52 435.950
QB50P1 29 Sep 02:01:04 02:03:22 15° 294° (WNW) 02:05:42 145.935-145.965
JAS-2 29 Sep 02:12:16 02:19:18 38° 294° (WNW) 02:26:01 435.910
UKube-1 29 Sep 02:12:18 02:13:02 10° 269° (W) 02:13:47 .
POPSAT HIP 1 29 Sep 02:16:07 02:16:54 10° 296° (WNW) 02:17:41 437.405
ITUPSAT 1 29 Sep 02:26:39 02:31:08 44° 72° (ENE) 02:35:41 437.325
Cosmos 2491 29 Sep 02:29:01 02:37:54 77° 82° (E) 02:46:42 435.465 / 435.565
Gurwin Techsat 1B 29 Sep 02:31:49 02:36:34 32° 97° (E) 02:41:17 435.225
SWISSCUBE 29 Sep 02:38:46 02:43:28 69° 75° (ENE) 02:48:14 437.505
BEESAT 3 29 Sep 02:42:24 02:43:03 10° 317° (NW) 02:43:42 437.485
BEESAT 29 Sep 02:51:34 02:56:19 84° 76° (ENE) 03:01:06 436.000
AIST 2 29 Sep 02:55:49 02:58:50 20° 111° (ESE) 03:01:54 435.215
Oscar 19 29 Sep 03:02:52 03:07:55 58° 287° (WNW) 03:12:56 437.125/150
ISS 29 Sep 03:16:10 03:19:28 83° 219° (SW) 03:22:44 145.825
YUBILEINY 29 Sep 03:24:59 03:33:46 79° 94° (E) 03:42:32 435.215
Cosmos 2504 29 Sep 03:30:15 03:36:25 29° 86° (E) 03:42:23 435.465 / 435.565
RS-15 29 Sep 03:42:34 03:53:35 35° 39° (NE) 04:04:23 29.354- 29.394
PCSat 29 Sep 03:52:41 03:57:30 34° 109° (ESE) 04:02:21 145.827
AO-7 29 Sep 03:54:32 04:01:39 31° 97° (E) 04:08:43 29.400- 29.500
ITAMSAT 1 29 Sep 03:58:45 04:03:55 59° 101° (ESE) 04:09:03 435.822/435.867
ITUPSAT 1 29 Sep 04:06:03 04:09:10 17° 267° (W) 04:12:17 437.325
MOZHAYETS 4 29 Sep 04:06:09 04:10:42 83° 79° (E) 04:15:20
Gurwin Techsat 1B 29 Sep 04:11:52 04:16:23 29° 292° (WNW) 04:20:54 435.225
SWISSCUBE 29 Sep 04:20:34 04:21:43 11° 270° (W) 04:22:50 437.505
KKS-1 29 Sep 04:21:40 04:26:07 80° 75° (ENE) 04:30:35 437.445
Cosmos 2491 29 Sep 04:27:47 04:33:40 20° 280° (W) 04:39:33 435.465 / 435.565
AIST 2 29 Sep 04:33:24 04:37:06 32° 307° (NW) 04:40:51 435.215
STARS 29 Sep 04:51:33 04:55:55 81° 76° (ENE) 05:00:19 437.465
Cosmos 2504 29 Sep 05:22:29 05:29:28 44° 283° (WNW) 05:36:16 435.465 / 435.565
YUBILEINY 29 Sep 05:25:24 05:31:30 20° 294° (WNW) 05:37:39 435.215
CUSAT 1 29 Sep 05:28:43 05:35:03 28° 67° (ENE) 05:40:30 437.405
CUBESAT XI-V 29 Sep 05:29:32 05:34:13 82° 76° (ENE) 05:38:58 437.345
DANDE 29 Sep 05:31:04 05:35:42 16° 60° (ENE) 05:40:10 436.750
HORYU 2 29 Sep 05:35:12 05:38:51 24° 96° (E) 05:42:28 437.375
PCSat 29 Sep 05:36:05 05:40:52 31° 306° (NW) 05:45:41 145.827
ITAMSAT 1 29 Sep 05:39:41 05:42:52 17° 297° (WNW) 05:46:03 435.822/435.867
AIST 1 29 Sep 05:46:33 05:50:56 73° 278° (W) 05:55:19
AO-7 29 Sep 05:46:40 05:54:40 55° 294° (WNW) 06:02:39 29.400- 29.500
RS-15 29 Sep 05:55:02 06:07:26 79° 244° (WSW) 06:19:26 29.354- 29.394
CUTE-I 29 Sep 06:10:36 06:12:56 13° 91° (E) 06:15:16 437.470
Cubesat XI-IV 29 Sep 06:10:56 06:13:14 13° 91° (E) 06:15:33 437.490
BRITE-PL 29 Sep 06:15:06 06:19:29 38° 96° (E) 06:23:33 437.365/2234.400
O/OREOS (USA 219) 29 Sep 06:15:32 06:17:51 14° 98° (E) 06:20:10 437.305
AO-85 29 Sep 06:15:53 06:20:00 77° 60° (ENE) 06:23:52 145.980
NOAA 18 29 Sep 07:02:01 07:06:55 33° 98° (E) 07:11:47 137.9125
STRAND 1 29 Sep 07:07:39 07:12:24 41° 71° (ENE) 07:17:10 437.568
CUSAT 1 29 Sep 07:10:15 07:17:28 51° 269° (W) 07:23:23 437.405
DANDE 29 Sep 07:11:28 07:19:56 76° 80° (E) 07:27:30 436.750
HORYU 2 29 Sep 07:11:33 07:15:20 28° 291° (WNW) 07:19:08 437.375
LilacSat-2 29 Sep 07:14:11 07:18:01 63° 101° (E) 07:21:50 437.200
NOAA 15 29 Sep 07:26:50 07:32:10 90° 102° (ESE) 07:37:27 137.62
GOMX 1 29 Sep 07:34:47 07:39:07 67° 285° (WNW) 07:43:15 467.674
AO-7 29 Sep 07:43:46 07:45:35 11° 314° (NW) 07:47:24 29.400- 29.500
CUTE-I 29 Sep 07:48:06 07:53:26 71° 286° (WNW) 07:58:46 437.470
DOVE 4 29 Sep 07:48:23 07:52:32 66° 101° (E) 07:56:38 437.250
Cubesat XI-IV 29 Sep 07:48:26 07:53:47 71° 286° (WNW) 07:59:07 437.490
GONETS M04 29 Sep 07:49:47 07:56:42 27° 82° (E) 08:03:38
O/OREOS (USA 219) 29 Sep 07:52:20 07:56:45 50° 294° (WNW) 08:01:13 437.305
BRITE-PL 29 Sep 07:54:23 07:57:37 19° 295° (WNW) 08:00:42 437.365/2234.400
RS-15 29 Sep 08:10:52 08:17:49 17° 263° (W) 08:24:42 29.354- 29.394
Cosmos 2499 29 Sep 08:28:42 08:35:04 36° 88° (E) 08:41:23 435.465 / 435.565
SEEDS 29 Sep 08:37:56 08:41:36 28° 96° (E) 08:45:15 437.485
CUTE 1.7 + AOD 2 29 Sep 08:39:04 08:43:10 42° 98° (E) 08:47:14 437.475
CANX-2 29 Sep 08:40:34 08:44:47 52° 99° (E) 08:48:57 2200.000
NOAA 18 29 Sep 08:42:45 08:47:27 30° 293° (WNW) 08:52:11 137.9125
STRAND 1 29 Sep 08:47:55 08:51:42 21° 266° (W) 08:55:31 437.568
CINEMA 3 29 Sep 08:48:49 08:53:01 80° 101° (E) 08:57:20 145.822/145.860
DANDE 29 Sep 08:55:48 09:01:44 22° 278° (W) 09:07:18 436.750
AAUSAT CUBESAT 2 29 Sep 08:56:10 08:59:32 23° 95° (E) 09:02:52 437.432
HO-68 29 Sep 09:00:27 09:07:36 69° 104° (ESE) 09:14:42 435.675
PHONESAT 2.4 29 Sep 09:04:03 09:04:24 10° 144° (SE) 09:04:44 2401.200-2431.200
NOAA 15 29 Sep 09:09:41 09:11:08 11° 301° (WNW) 09:12:34 137.62
BEESAT 3 29 Sep 09:20:06 09:23:28 25° 52° (NE) 09:26:48 437.485
ANTELSAT 29 Sep 09:23:06 09:24:22 11° 64° (ENE) 09:25:38 437.575/2403.000
PRISM 29 Sep 09:25:00 09:29:10 74° 257° (WSW) 09:33:21 437.425
COMPASS 1 29 Sep 09:41:25 09:45:39 76° 283° (WNW) 09:49:50 437.405
TIGRISAT 29 Sep 09:41:29 09:44:17 17° 67° (ENE) 09:47:04 435.000
FUNcube-1 29 Sep 09:43:14 09:47:07 30° 97° (E) 09:51:02 145.935
GONETS M04 29 Sep 09:44:07 09:52:49 61° 281° (W) 10:01:36
CUBEBUG 2 29 Sep 09:45:31 09:49:51 90° 135° (SE) 09:54:18 437.445
UWE-3 29 Sep 10:00:11 10:04:32 86° 101° (E) 10:09:00 435.000/436.395/437.385
DELFI C3 29 Sep 10:02:44 10:05:35 19° 94° (E) 10:08:25 145.870
SEEDS 29 Sep 10:13:49 10:17:08 22° 291° (WNW) 10:20:25 437.485
CUTE 1.7 + AOD 2 29 Sep 10:16:05 10:18:37 16° 294° (WNW) 10:21:10 437.475
CANX-2 29 Sep 10:18:10 10:20:09 13° 295° (WNW) 10:22:08 2200.000
BEESAT 2 29 Sep 10:18:37 10:22:33 53° 57° (ENE) 10:26:28 435.950
Oscar 11 29 Sep 10:20:49 10:25:12 87° 100° (E) 10:29:34 145.826/435.025
UNISAT 6 29 Sep 10:21:04 10:25:13 52° 75° (ENE) 10:29:22 437.425
Cosmos 2499 29 Sep 10:21:45 10:28:06 34° 285° (WNW) 10:34:26 435.465 / 435.565
ZACube-1 29 Sep 10:25:52 10:30:13 78° 284° (WNW) 10:34:40 437.345
AAUSAT CUBESAT 2 29 Sep 10:31:28 10:34:56 25° 290° (WNW) 10:38:22 437.432
HUMSAT D 29 Sep 10:32:31 10:35:49 21° 95° (E) 10:39:08 437.325/437.525
PHONESAT 2.4 29 Sep 10:37:11 10:40:03 57° 158° (SSE) 10:42:56 2401.200-2431.200
JAS-2 29 Sep 10:39:16 10:43:12 16° 56° (NE) 10:47:21 435.910
HO-68 29 Sep 10:49:27 10:54:39 22° 301° (WNW) 10:59:50 435.675
ANTELSAT 29 Sep 10:56:21 11:00:33 59° 259° (W) 11:04:46 437.575/2403.000
BEESAT 3 29 Sep 10:57:45 11:01:02 25° 248° (WSW) 11:04:17 437.485
DUCHIFAT 1 29 Sep 11:11:16 11:14:21 20° 68° (ENE) 11:17:25 145.980
QB50P1 29 Sep 11:14:51 11:18:20 26° 70° (ENE) 11:21:48 145.935-145.965
TIGRISAT 29 Sep 11:16:46 11:20:41 36° 262° (W) 11:24:36 435.000
FUNcube-1 29 Sep 11:19:50 11:23:09 22° 291° (WNW) 11:26:32 145.935
AIST 2 29 Sep 11:20:05 11:20:54 10° 42° (NE) 11:21:43 435.215
POPSAT HIP 1 29 Sep 11:28:09 11:31:58 35° 72° (ENE) 11:35:48 437.405
DELFI C3 29 Sep 11:36:57 11:40:26 28° 289° (WNW) 11:43:52 145.870
ESTCUBE 1 29 Sep 11:40:09 11:43:20 19° 94° (E) 11:46:30 437.505/2401.250
NANOSAT C BR1 29 Sep 11:42:58 11:47:01 51° 74° (ENE) 11:51:05 145.865
BEESAT 2 29 Sep 11:58:30 11:59:53 12° 252° (WSW) 12:01:15 435.950
UNISAT 6 29 Sep 12:00:54 12:02:14 11° 269° (W) 12:03:35 437.425
HUMSAT D 29 Sep 12:07:44 12:11:24 29° 289° (WNW) 12:15:05 437.325/437.525
QB50P2 29 Sep 12:07:58 12:12:08 68° 258° (WSW) 12:16:20 145.880/145.840
POLYITAN 1 29 Sep 12:10:10 12:14:20 68° 259° (WSW) 12:18:32 437.675
PHONESAT 2.4 29 Sep 12:13:20 12:16:12 48° 354° (N) 12:19:04 2401.200-2431.200
JAS-2 29 Sep 12:20:34 12:27:00 90° 114° (ESE) 12:34:22 435.910
UKube-1 29 Sep 12:23:46 12:25:02 11° 92° (E) 12:26:17 .
AISAT 29 Sep 12:24:25 12:28:12 28° 97° (E) 12:31:57 437.250
50 SAT 29 Sep 12:34:47 12:38:05 31° 98° (E) 12:41:21 437.505
Oscar 19 29 Sep 12:40:15 12:43:54 20° 65° (ENE) 12:47:32 437.125/150
BUGSAT 1 29 Sep 12:40:36 12:44:43 89° 235° (SW) 12:48:48 437.445
PCSat 29 Sep 12:42:32 12:46:35 21° 49° (NE) 12:50:37 145.827
DUCHIFAT 1 29 Sep 12:46:10 12:49:50 29° 263° (W) 12:53:30 145.980
QB50P1 29 Sep 12:50:40 12:54:01 23° 264° (W) 12:57:23 145.935-145.965
DX 1 29 Sep 12:53:32 12:57:29 34° 98° (E) 13:01:25 434.975-435.025
AIST 2 29 Sep 12:55:47 13:00:01 89° 73° (ENE) 13:04:12 435.215
POPSAT HIP 1 29 Sep 13:05:09 13:07:51 16° 267° (W) 13:10:33 437.405
CUBEBUG 1 29 Sep 13:07:00 13:11:19 72° 285° (WNW) 13:15:36 437.445
VELOX 1 29 Sep 13:07:23 13:11:49 84° 102° (ESE) 13:16:12 145.980
M-CUBED/EXP-1 PRIME 29 Sep 13:09:41 13:12:44 36° 104° (ESE) 13:15:48 437.505
ESTCUBE 1 29 Sep 13:16:04 13:20:14 37° 289° (WNW) 13:24:22 437.505/2401.250
TISAT 1 29 Sep 13:20:37 13:21:06 10° 91° (E) 13:21:35 437.305
NANOSAT C BR1 29 Sep 13:21:39 13:23:01 11° 268° (W) 13:24:23 145.865
Cosmos 2491 29 Sep 13:35:29 13:40:27 17° 78° (ENE) 13:45:25 435.465 / 435.565
YUBILEINY 29 Sep 13:38:02 13:45:50 35° 73° (ENE) 13:53:34 435.215
SPROUT 29 Sep 13:39:16 13:43:31 74° 285° (WNW) 13:47:46 437.525
PHONESAT 2.4 29 Sep 13:49:36 13:52:30 58° 10° (N) 13:55:25 2401.200-2431.200
Gurwin Techsat 1B 29 Sep 13:50:58 13:55:57 43° 71° (ENE) 14:00:57 435.225
UKube-1 29 Sep 13:57:10 14:01:23 55° 287° (WNW) 14:05:35 .
AISAT 29 Sep 14:01:02 14:04:32 23° 292° (WNW) 14:07:59 437.250
AUBIESAT-1 29 Sep 14:05:00 14:08:08 41° 291° (WNW) 14:11:18 437.475
50 SAT 29 Sep 14:09:13 14:11:16 14° 293° (WNW) 14:13:19 437.505
JAS-2 29 Sep 14:10:09 14:13:09 13° 275° (W) 14:16:17 435.910
Oscar 19 29 Sep 14:17:48 14:22:48 48° 260° (W) 14:27:51 437.125/150
PCSat 29 Sep 14:25:02 14:30:20 57° 247° (WSW) 14:35:37 145.827
DX 1 29 Sep 14:30:20 14:33:24 19° 293° (WNW) 14:36:29 434.975-435.025
ITUPSAT 1 29 Sep 14:30:42 14:32:56 13° 92° (E) 14:35:09 437.325
